Regional Weather Roundup
Issued by NWS

Home | Current Version | Previous Version | Graphics & Text | Print | Product List | Glossary On
Versions: 1 2 3 4 5 6 7 8 9 10 11 12 13 14 15 16 17 18 19 20 21 22 23 24 25 26 27 28 29 30 31 32 33 34 35 36 37 38 39 40 41 42 43 44 45 46 47 48 49 50
000
ASUS43 KIND 220009
RWRIN

WEATHER ROUNDUP FOR INDIANA
NATIONAL WEATHER SERVICE INDIANAPOLIS IN
800 PM EDT WED JUN 21 2017

NOTE: "FAIR" INDICATES FEW OR NO CLOUDS BELOW 12,000 FEET WITH NO
SIGNIFICANT WEATHER AND/OR OBSTRUCTIONS TO VISIBILITY.

* - STATION DOES NOT REPORT WEATHER SUCH AS PRECIPITATION OR FOG.

+ - STATION NOT QUALITY CONTROLLED BY THE NATIONAL WEATHER SERVICE.
    USE DATA WITH CAUTION...ESPECIALLY DEWPOINT AND RELATIVE
    HUMIDITY OBSERVATIONS.

INZ001>003-010>013-019-020-220100-
NORTHWEST INDIANA

CITY           SKY/WX    TMP DP  RH WIND       PRES   REMARKS
GARY /AIRPORT/ PTSUNNY   75  55  50 E6        29.90F
KNOX *+        CLOUDY    77  46  33 SE6       29.90F
LA PORTE +     PTSUNNY   77  55  45 SE5       29.92S
6HR MIN TEMP:  76; 6HR MAX TEMP:  80;

MICHIGAN CITY+ CLOUDY    77  54  44 CALM      29.91S
MONTICELLO +   SUNNY     81  62  52 S8        29.90S
6HR MIN TEMP:  78; 6HR MAX TEMP:  83;

RENSSELAER +   MOSUNNY   81  55  41 SE6       29.90S
VALPARAISO     CLOUDY    79  60  52 SE5       29.91S
6HR MIN TEMP:  79; 6HR MAX TEMP:  82;


$$

LMZ046-743>745-220100-
SOUTHERN LAKE MICHIGAN

STATION/POSITION TIME  TEMP    WIND        PRES    WAVE
                       AIR SEA DIR/SP/G            HT
                 (UTC) (F)     (DEG/KT/KT) (MB)    (FT)
BURNS HARBOR     2340   69      70/ 10/ 12 1012.9S
MICHIGAN CITY    2340   69      40/ 11/ 12   N/A
5NW MICH CITY    0000   69 68   60/  8/ 10   N/A     1

$$

INZ004-005-014>016-021>024-220100-
NORTH CENTRAL INDIANA

CITY           SKY/WX    TMP DP  RH WIND       PRES   REMARKS
ELKHART        SUNNY     77  52  41 S6        29.92R
GOSHEN         MOSUNNY   77  51  40 S5        29.92F
6HR MIN TEMP:  76; 6HR MAX TEMP:  79;

LOGANSPORT +   SUNNY     79  61  53 S5        29.92S
PERU/GRISSOM   CLOUDY    81  64  54 SW6       29.90F
6HR MIN TEMP:  78; 6HR MAX TEMP:  83;

ROCHESTER +    SUNNY     81  55  41 S5        29.92F
SOUTH BEND     MOSUNNY   76  53  44 S8        29.92S
6HR MIN TEMP:  75; 6HR MAX TEMP:  79;

WARSAW +       MOSUNNY   75  55  50 SE3       29.92S

$$

INZ006>009-017-018-025>027-220100-
NORTHEAST INDIANA

CITY           SKY/WX    TMP DP  RH WIND       PRES   REMARKS
AUBURN +       HAZE      79  54  41 CALM      29.94F VSB<1/4
FORT WAYNE     MOSUNNY   78  60  53 SE3       29.93F
6HR MIN TEMP:  76; 6HR MAX TEMP:  82;

KENDALLVILLE + SUNNY     77  54  43 S5        29.94S

$$

INZ028-029-035-036-043>045-051>053-220100-
WEST CENTRAL INDIANA

CITY           SKY/WX    TMP DP  RH WIND       PRES   REMARKS
CRAWFORDSVL +  CLOUDY   N/A N/A N/A SW3       29.92F
GREENCASTLE +  PTSUNNY   82  70  65 CALM      29.93F
LAFAYETTE      CLOUDY    81  67  62 S3        29.89F
6HR MIN TEMP:  78; 6HR MAX TEMP:  84;

TERRE HAUTE    MOSUNNY   83  66  56 W7        29.92R
6HR MIN TEMP:  83; 6HR MAX TEMP:  89;


$$

INZ030>032-037>040-046>048-054>057-064-065-220100-
CENTRAL INDIANA

CITY           SKY/WX    TMP DP  RH WIND       PRES   REMARKS
CP ATTERBURY + CLOUDY    82  72  69 CALM      29.94S
COLUMBUS       PTSUNNY  N/A N/A N/A SW8       29.94S
FRANKFORT +    CLOUDY    85  68  57 SW6       29.93F
6HR MIN TEMP:  80; 6HR MAX TEMP:  87;

GREENWOOD *+   MOSUNNY   86  66  51 W7        29.93F
INDIANAPOLIS   CLOUDY    85  69  58 W9        29.92S
6HR MIN TEMP:  83; 6HR MAX TEMP:  89;

-EAGLE CREEK   MOSUNNY   86  68  54 SW5       29.91F
6HR MIN TEMP:  82; 6HR MAX TEMP:  88;

KOKOMO +       CLOUDY    82  63  52 CALM      29.93F
6HR MIN TEMP:  77; 6HR MAX TEMP:  84;

MARION +       SUNNY     81  63  54 SW3       29.94F HAZE
MT COMFORT *+  PTSUNNY   86  68  54 W7        29.93S
SHELBYVILLE    MOSUNNY   84  67  56 S6        29.92S
6HR MIN TEMP:  84; 6HR MAX TEMP:  90;

ZIONSVILLE +   SUNNY     83  65  55 W3        29.93F
6HR MIN TEMP:  79; 6HR MAX TEMP:  85;


$$

INZ033-034-041-042-049-050-058-059-220100-
EAST CENTRAL INDIANA

CITY           SKY/WX    TMP DP  RH WIND       PRES   REMARKS
MUNCIE         MOSUNNY   83  65  54 NW7       29.94S
6HR MIN TEMP:  80; 6HR MAX TEMP:  85;

RICHMOND +     SUNNY     82  64  54 W7        29.96S

$$

INZ060-061-067>069-081>083-085>088-220100-
SOUTHWEST INDIANA

CITY           SKY/WX    TMP DP  RH WIND       PRES   REMARKS
EVANSVILLE     MOSUNNY   84  67  56 SW14      29.96S
6HR MIN TEMP:  84; 6HR MAX TEMP:  92;

HUNTINGBURG *+ MOSUNNY   83  69  62 SW10      29.97R
6HR MIN TEMP:  83; 6HR MAX TEMP:  91;

WASHINGTON +   MOSUNNY   85  65  52 SW10      29.92F
6HR MIN TEMP:  85; 6HR MAX TEMP:  91;


$$

INZ062-063-066-070>080-084-089>092-220100-
SOUTH CENTRAL AND SOUTHEAST INDIANA

CITY           SKY/WX    TMP DP  RH WIND       PRES   REMARKS
BLOOMINGTON    CLOUDY    83  69  62 S5        29.94S
6HR MIN TEMP:  83; 6HR MAX TEMP:  90; 6HR PCP: TRACE;

MADISON *+     CLOUDY    82  64  54 SW6       29.99S
NORTH VERNON + CLOUDY    81  68  65 SW9       29.96S
SEYMOUR +      PTSUNNY   82  68  61 SW7       29.95S

$$





USA.gov is the U.S. government's official web portal to all federal, state and local government web resources and services.